This demonstration page uses our WeatherBlox Daily Observations layout. Learn more.

Left ArrowRight Arrow

Hourly Observations for March 16, 2022

Temp ( °F °C ) Dew Point ( °F °C ) Humidity (%) Winds ( mph kmh ) Pressure ( in mb ) Visibility ( mi km ) Precip ( " mm )
12:59 am 00:59 Mostly Cloudy 57 13.9 46 7.8 67 67 VRB 6 9 30.22 1023 10 16 0.00 0.00
1:59 am 01:59 Mostly Cloudy 56 13.3 47 8.3 72 72 SSW 7 11 30.21 1023 10 16 0.00 0.00
2:59 am 02:59 Mostly Cloudy 55 12.8 47 8.3 74 74 SSW 5 7 30.20 1023 10 16 0.00 0.00
3:59 am 03:59 Mostly Cloudy 55 12.8 47 8.3 74 74 SSW 5 7 30.18 1022 10 16 0.00 0.00
4:59 am 04:59 Mostly Cloudy 54 12.2 47 8.3 77 77 SSW 5 7 30.19 1022 10 16 0.00 0.00
5:59 am 05:59 Clear 53 11.7 46 7.8 77 77 Calm 30.20 1023 10 16 0.00 0.00
6:59 am 06:59 Mostly Cloudy 51 10.6 46 7.8 83 83 Calm 30.20 1023 10 16 0.00 0.00
7:59 am 07:59 Mostly Cloudy 51 10.6 46 7.8 83 83 Calm 30.21 1023 10 16 0.00 0.00
8:59 am 08:59 Sunny 55 12.8 49 9.4 80 80 Calm 30.22 1023 10 16 0.00 0.00
9:59 am 09:59 Sunny 59 15 49 9.4 69 69 S 3 6 30.23 1024 10 16 0.00 0.00
10:59 am 10:59 Sunny 62 16.7 48 8.9 60 60 Calm 30.23 1024 9 14 0.00 0.00
11:59 am 11:59 Mostly Cloudy 65 18.3 48 8.9 54 54 N 7 11 30.23 1024 9 14 0.00 0.00
12:59 pm 12:59 Mostly Cloudy 66 18.9 43 6.1 43 43 ENE 6 9 30.22 1023 10 16 0.00 0.00
1:59 pm 13:59 Mostly Cloudy 67 19.4 42 5.6 41 41 E 7 11 30.19 1022 10 16 0.00 0.00
2:59 pm 14:59 Mostly Cloudy 65 18.3 44 6.7 47 47 E 10 17 30.16 1022 10 16 0.00 0.00
3:59 pm 15:59 Mostly Cloudy 67 19.4 45 7.2 45 45 ENE 13 20 30.14 1021 10 16 0.00 0.00
4:59 pm 16:59 Mostly Cloudy 68 20 44 6.7 42 42 ENE 9 15 30.13 1020 10 16 0.00 0.00
5:59 pm 17:59 Mostly Cloudy 66 18.9 43 6.1 43 43 E 8 13 30.12 1020 10 16 0.00 0.00
6:59 pm 18:59 Mostly Cloudy 64 17.8 41 5 43 43 E 6 9 30.12 1020 10 16 0.00 0.00
7:59 pm 19:59 Cloudy 63 17.2 39 3.9 41 41 ESE 6 9 30.12 1020 10 16 0.00 0.00
8:59 pm 20:59 Cloudy 62 16.7 42 5.6 48 48 Calm 30.11 1020 10 16 0.00 0.00
9:59 pm 21:59 Cloudy 58 14.4 47 8.3 67 67 E 3 6 30.10 1019 10 16 0.00 0.00
10:59 pm 22:59 Cloudy 58 14.4 49 9.4 72 72 E 5 7 30.09 1019 10 16 0.00 0.00
11:59 pm 23:59 Cloudy 59 15 51 10.6 75 75 Calm 30.06 1018 10 16 0.00 0.00

Powered by AerisWeather